Location: Newark
(25.0000°N, 73.5000°E)
Time: 11:50:10
(UTC+00:00)

Altair - Pass Details

Date: 01 March 2021
Orbit: 1501 x 1683 km, 47.2° (Epoch: 15 April)

Event Time Altitude Azimuth Distance (km) Brightness Sun altitude
Rises 15:47:05 0° 281° (W) 4,642 11.0 -36.7°
Reaches altitude 10° 15:51:06 10° 296° (WNW) 3,678 10.2 -37.6°
Maximum altitude 15:57:52 22° 344° (NNW) 2,889 9.1 -39.1°
Enters shadow 16:01:24 18° 12° (NNE) 3,152 9.1 -39.9°
Drops below altitude 10° 16:04:49 10° 31° (NNE) 3,770 - -40.6°
Sets 16:09:02 0° 47° (NE) 4,789 - -41.6°
